Time,TemperatureF,DewpointF,PressureIn,WindDirection,WindDirectionDegrees,WindSpeedMPH,WindSpeedGustMPH,Humidity,HourlyPrecipIn,Conditions,Clouds,dailyrainin,SoftwareType,DateUTC
2013-01-07 00:03:00,25.0,22.0,-100.00,ESE,110,0.0,1.0,88,-99.99,,,-99.99,,2013-01-07 05:03:00,
2013-01-07 00:12:00,25.0,22.0,-100.00,ESE,110,0.0,1.0,88,-99.99,,,-99.99,,2013-01-07 05:12:00,
2013-01-07 00:22:00,25.0,22.0,-100.00,ESE,110,0.0,1.0,88,-99.99,,,-99.99,,2013-01-07 05:22:00,
2013-01-07 00:33:00,25.0,22.0,-100.00,ESE,110,0.0,1.0,88,-99.99,,,-99.99,,2013-01-07 05:33:00,
2013-01-07 00:42:00,25.0,22.0,-100.00,ESE,110,0.0,1.0,88,-99.99,,,-99.99,,2013-01-07 05:42:00,
2013-01-07 00:50:00,23.0,21.0,-100.00,ENE,65,0.0,1.0,91,-99.99,,,-99.99,,2013-01-07 05:50:00,
2013-01-07 01:12:00,23.0,21.0,-100.00,ENE,65,0.0,1.0,91,-99.99,,,-99.99,,2013-01-07 06:12:00,
2013-01-07 01:22:00,23.0,21.0,-100.00,ENE,65,0.0,1.0,91,-99.99,,,-99.99,,2013-01-07 06:22:00,
2013-01-07 01:32:00,23.0,21.0,-100.00,ENE,65,0.0,1.0,91,-99.99,,,-99.99,,2013-01-07 06:32:00,
2013-01-07 01:42:00,23.0,21.0,-100.00,ENE,65,0.0,1.0,91,-99.99,,,-99.99,,2013-01-07 06:42:00,
2013-01-07 06:53:00,18.0,17.0,-100.00,ENE,65,1.0,2.0,94,-99.99,,,-99.99,,2013-01-07 11:53:00,
2013-01-07 07:03:00,18.0,17.0,-100.00,ENE,65,1.0,2.0,94,-99.99,,,-99.99,,2013-01-07 12:03:00,
2013-01-07 07:12:00,18.0,17.0,-100.00,ENE,65,1.0,2.0,94,-99.99,,,-99.99,,2013-01-07 12:12:00,
2013-01-07 07:22:00,18.0,17.0,-100.00,ENE,65,1.0,2.0,94,-99.99,,,-99.99,,2013-01-07 12:22:00,
2013-01-07 07:33:00,18.0,17.0,-100.00,ENE,65,1.0,2.0,94,-99.99,,,-99.99,,2013-01-07 12:33:00,
2013-01-07 08:02:00,18.0,17.0,-100.00,NNE,15,0.0,1.0,94,-99.99,,,-99.99,,2013-01-07 13:02:00,
2013-01-07 08:12:00,18.0,17.0,-100.00,NNE,15,0.0,1.0,94,-99.99,,,-99.99,,2013-01-07 13:12:00,
2013-01-07 08:23:00,18.0,17.0,-100.00,NNE,15,0.0,1.0,94,-99.99,,,-99.99,,2013-01-07 13:23:00,
2013-01-07 08:33:00,18.0,17.0,-100.00,NNE,15,0.0,1.0,94,-99.99,,,-99.99,,2013-01-07 13:33:00,
2013-01-07 08:42:00,18.0,17.0,-100.00,NNE,15,0.0,1.0,94,-99.99,,,-99.99,,2013-01-07 13:42:00,
2013-01-07 09:43:00,21.0,20.0,-100.00,WSW,255,0.0,1.0,93,-99.99,,,-99.99,,2013-01-07 14:43:00,
2013-01-07 09:53:00,21.0,20.0,-100.00,WSW,255,0.0,1.0,93,-99.99,,,-99.99,,2013-01-07 14:53:00,
2013-01-07 10:03:00,21.0,20.0,-100.00,WSW,255,0.0,1.0,93,-99.99,,,-99.99,,2013-01-07 15:03:00,
2013-01-07 10:12:00,24.0,22.0,-100.00,NNW,330,0.0,1.0,93,-99.99,,,-99.99,,2013-01-07 15:12:00,
2013-01-07 10:22:00,24.0,22.0,-100.00,NNW,330,0.0,1.0,93,-99.99,,,-99.99,,2013-01-07 15:22:00,
2013-01-07 10:33:00,24.0,22.0,-100.00,NNW,330,0.0,1.0,93,-99.99,,,-99.99,,2013-01-07 15:33:00,
2013-01-07 10:43:00,28.0,26.0,-100.00,South,170,1.0,2.0,93,-99.99,,,-99.99,,2013-01-07 15:43:00,
2013-01-07 10:53:00,29.0,27.0,-100.00,West,270,2.0,4.0,92,-99.99,,,-99.99,,2013-01-07 15:53:00,
2013-01-07 11:02:00,29.0,27.0,-100.00,West,270,2.0,4.0,92,-99.99,,,-99.99,,2013-01-07 16:02:00,
2013-01-07 11:12:00,29.0,27.0,-100.00,West,270,2.0,4.0,92,-99.99,,,-99.99,,2013-01-07 16:12:00,
2013-01-07 11:22:00,29.0,27.0,-100.00,West,270,2.0,4.0,92,-99.99,,,-99.99,,2013-01-07 16:22:00,
2013-01-07 11:33:00,29.0,27.0,-100.00,West,270,2.0,4.0,92,-99.99,,,-99.99,,2013-01-07 16:33:00,
2013-01-07 12:12:00,37.0,24.0,-100.00,SE,130,1.0,4.0,60,-99.99,,,-99.99,,2013-01-07 17:12:00,
2013-01-07 12:23:00,38.0,24.0,-100.00,SE,135,1.0,6.0,58,-99.99,,,-99.99,,2013-01-07 17:23:00,
2013-01-07 12:33:00,38.0,24.0,-100.00,SE,135,1.0,6.0,58,-99.99,,,-99.99,,2013-01-07 17:33:00,
2013-01-07 12:42:00,38.0,24.0,-100.00,SE,135,1.0,6.0,58,-99.99,,,-99.99,,2013-01-07 17:42:00,
2013-01-07 12:52:00,38.0,24.0,-100.00,SE,135,1.0,6.0,58,-99.99,,,-99.99,,2013-01-07 17:52:00,
2013-01-07 13:03:00,38.0,24.0,-100.00,SE,135,1.0,6.0,58,-99.99,,,-99.99,,2013-01-07 18:03:00,
2013-01-07 13:12:00,40.0,24.0,-100.00,SW,220,3.0,6.0,52,-99.99,,,-99.99,,2013-01-07 18:12:00,
2013-01-07 13:23:00,39.0,23.0,-100.00,South,180,2.0,7.0,51,-99.99,,,-99.99,,2013-01-07 18:23:00,
2013-01-07 13:33:00,39.0,23.0,-100.00,South,180,2.0,7.0,51,-99.99,,,-99.99,,2013-01-07 18:33:00,
2013-01-07 13:42:00,39.0,23.0,-100.00,South,180,2.0,7.0,51,-99.99,,,-99.99,,2013-01-07 18:42:00,
2013-01-07 13:52:00,39.0,23.0,-100.00,South,180,2.0,7.0,51,-99.99,,,-99.99,,2013-01-07 18:52:00,
2013-01-07 15:03:00,43.0,22.0,-100.00,SSE,150,3.0,6.0,44,-99.99,,,-99.99,,2013-01-07 20:03:00,
2013-01-07 15:12:00,43.0,22.0,-100.00,SSE,150,3.0,6.0,44,-99.99,,,-99.99,,2013-01-07 20:12:00,
2013-01-07 15:23:00,43.0,22.0,-100.00,SSE,150,3.0,6.0,44,-99.99,,,-99.99,,2013-01-07 20:23:00,
2013-01-07 15:33:00,43.0,22.0,-100.00,SSE,150,3.0,6.0,44,-99.99,,,-99.99,,2013-01-07 20:33:00,
2013-01-07 15:42:00,43.0,22.0,-100.00,SSE,150,3.0,6.0,44,-99.99,,,-99.99,,2013-01-07 20:42:00,
2013-01-07 16:12:00,43.0,22.0,-100.00,SE,140,1.0,6.0,43,-99.99,,,-99.99,,2013-01-07 21:12:00,
2013-01-07 16:23:00,43.0,22.0,-100.00,SE,140,1.0,6.0,43,-99.99,,,-99.99,,2013-01-07 21:23:00,
2013-01-07 16:33:00,43.0,22.0,-100.00,SE,140,1.0,6.0,43,-99.99,,,-99.99,,2013-01-07 21:33:00,
2013-01-07 16:43:00,43.0,22.0,-100.00,SE,140,1.0,6.0,43,-99.99,,,-99.99,,2013-01-07 21:43:00,
2013-01-07 16:52:00,43.0,22.0,-100.00,SE,125,4.0,9.0,43,-99.99,,,-99.99,,2013-01-07 21:52:00,
2013-01-07 17:03:00,42.0,21.0,-100.00,SE,125,3.0,6.0,44,-99.99,,,-99.99,,2013-01-07 22:03:00,
2013-01-07 17:12:00,42.0,21.0,-100.00,SE,125,3.0,6.0,44,-99.99,,,-99.99,,2013-01-07 22:12:00,
2013-01-07 17:22:00,42.0,21.0,-100.00,SE,125,3.0,6.0,44,-99.99,,,-99.99,,2013-01-07 22:22:00,
2013-01-07 17:33:00,42.0,21.0,-100.00,SE,125,3.0,6.0,44,-99.99,,,-99.99,,2013-01-07 22:33:00,
2013-01-07 17:42:00,42.0,21.0,-100.00,SE,125,3.0,6.0,44,-99.99,,,-99.99,,2013-01-07 22:42:00,
2013-01-07 18:02:00,38.0,21.0,-100.00,ESE,115,1.0,4.0,50,-99.99,,,-99.99,,2013-01-07 23:02:00,
2013-01-07 18:12:00,38.0,21.0,-100.00,ESE,115,1.0,4.0,50,-99.99,,,-99.99,,2013-01-07 23:12:00,
2013-01-07 18:22:00,38.0,21.0,-100.00,ESE,115,1.0,4.0,50,-99.99,,,-99.99,,2013-01-07 23:22:00,
2013-01-07 18:33:00,34.0,21.0,-100.00,NE,55,0.0,1.0,59,-99.99,,,-99.99,,2013-01-07 23:33:00,
2013-01-07 18:42:00,34.0,21.0,-100.00,NE,55,0.0,1.0,59,-99.99,,,-99.99,,2013-01-07 23:42:00,
2013-01-07 18:53:00,34.0,21.0,-100.00,NE,55,0.0,1.0,59,-99.99,,,-99.99,,2013-01-07 23:53:00,
2013-01-07 19:02:00,34.0,21.0,-100.00,NE,55,0.0,1.0,59,-99.99,,,-99.99,,2013-01-08 00:02:00,
2013-01-07 19:12:00,34.0,21.0,-100.00,NE,55,0.0,1.0,59,-99.99,,,-99.99,,2013-01-08 00:12:00,
2013-01-07 19:23:00,31.0,23.0,-100.00,East,100,1.0,3.0,72,-99.99,,,-99.99,,2013-01-08 00:23:00,
2013-01-07 19:33:00,31.0,23.0,-100.00,East,100,1.0,3.0,72,-99.99,,,-99.99,,2013-01-08 00:33:00,
2013-01-07 19:43:00,30.0,23.0,-100.00,East,100,1.0,2.0,75,-99.99,,,-99.99,,2013-01-08 00:43:00,
2013-01-07 19:53:00,30.0,23.0,-100.00,East,100,1.0,2.0,75,-99.99,,,-99.99,,2013-01-08 00:53:00,
2013-01-07 20:02:00,30.0,23.0,-100.00,East,100,1.0,2.0,75,-99.99,,,-99.99,,2013-01-08 01:02:00,
2013-01-07 20:12:00,29.0,24.0,-100.00,ENE,75,1.0,2.0,81,-99.99,,,-99.99,,2013-01-08 01:12:00,
2013-01-07 20:22:00,28.0,24.0,-100.00,ESE,110,1.0,1.0,83,-99.99,,,-99.99,,2013-01-08 01:22:00,
2013-01-07 20:33:00,28.0,24.0,-100.00,ESE,110,1.0,1.0,83,-99.99,,,-99.99,,2013-01-08 01:33:00,
2013-01-07 20:42:00,28.0,24.0,-100.00,ESE,110,1.0,1.0,83,-99.99,,,-99.99,,2013-01-08 01:42:00,
2013-01-07 20:52:00,28.0,24.0,-100.00,ESE,110,1.0,1.0,83,-99.99,,,-99.99,,2013-01-08 01:52:00,
2013-01-07 21:02:00,28.0,24.0,-100.00,ESE,110,1.0,1.0,83,-99.99,,,-99.99,,2013-01-08 02:02:00,
2013-01-07 21:22:00,27.0,24.0,-100.00,ENE,60,0.0,1.0,88,-99.99,,,-99.99,,2013-01-08 02:22:00,
2013-01-07 21:33:00,27.0,24.0,-100.00,ENE,60,0.0,1.0,88,-99.99,,,-99.99,,2013-01-08 02:33:00,
2013-01-07 21:43:00,27.0,24.0,-100.00,ENE,60,0.0,1.0,88,-99.99,,,-99.99,,2013-01-08 02:43:00,
2013-01-07 21:53:00,27.0,24.0,-100.00,ENE,60,0.0,1.0,88,-99.99,,,-99.99,,2013-01-08 02:53:00,
2013-01-07 22:03:00,27.0,24.0,-100.00,ENE,60,0.0,1.0,88,-99.99,,,-99.99,,2013-01-08 03:03:00,
2013-01-07 22:53:00,24.0,22.0,-100.00,SE,125,1.0,2.0,92,-99.99,,,-99.99,,2013-01-08 03:53:00,
2013-01-07 23:02:00,24.0,22.0,-100.00,SE,125,1.0,2.0,92,-99.99,,,-99.99,,2013-01-08 04:02:00,
2013-01-07 23:12:00,24.0,22.0,-100.00,SE,125,1.0,2.0,92,-99.99,,,-99.99,,2013-01-08 04:12:00,
2013-01-07 23:22:00,24.0,22.0,-100.00,SE,125,1.0,2.0,92,-99.99,,,-99.99,,2013-01-08 04:22:00,
2013-01-07 23:32:00,24.0,22.0,-100.00,SE,125,1.0,2.0,92,-99.99,,,-99.99,,2013-01-08 04:32:00,